Location: ??????
(56.0120°N, 39.1740°E)
Time: 01:46:43
(UTC+00:00)

Spot 1 - Pass Details

Date: 14 April 2026
Orbit: 566 x 747 km, 98.7° (Epoch: 20 May)

Event Time Altitude Azimuth Distance (km) Brightness Sun altitude
Rises 22:55:33 0° 16° (NNE) 2,782 8.9 -21.6°
Reaches altitude 10° 22:57:41 10° 16° (NNE) 1,879 7.7 -21.5°
Maximum altitude 23:01:44 86° 289° (WNW) 582 3.8 -21.2°
Enters shadow 23:02:15 67° 208° (SSW) 625 3.7 -21.2°
